Theta_e
340 340 339 339 338 335 336 335 338 340 335 332 330 329 328 326 324 322 319 318 316 316 316 314 313 313 310 312 311 309 308 308 303 306 308 310 311 310 310 310 311 308 309
343 342 341 339 337 336 336 335 339 336 334 332 329 327 324 323 320 318 316 316 313 313 312 312 310 311 312 311 309 309 308 308 306 303 305 307 307 309 308 307 308 309 308
344 342 342 338 337 336 335 335 336 334 332 330 326 322 318 319 317 313 315 313 312 312 311 310 310 310 309 309 308 308 307 306 305 304 302 307 305 305 304 305 306 307 308
341 341 340 341 338 334 334 335 334 332 328 324 319 318 315 313 315 313 315 313 312 311 311 310 309 308 307 307 305 305 304 304 303 301 301 302 302 304 303 301 301 305 305
342 339 341 341 337 333 332 332 330 329 323 319 317 313 314 312 312 312 314 312 311 311 312 312 310 308 306 307 304 303 303 302 301 300 299 300 300 300 300 301 300 302 304
341 339 339 337 334 331 330 329 325 321 318 317 314 311 311 312 303 305 310 312 312 311 309 311 310 311 308 306 307 307 307 302 301 301 298 298 299 301 301 301 301 299 298
341 337 335 335 331 329 327 323 318 318 316 312 312 311 304 301 301 301 305 309 311 311 310 310 308 304 303 302 303 307 309 308 307 304 301 300 301 302 303 302 301 300 300
340 334 333 331 328 324 321 319 315 316 314 311 313 308 304 302 301 300 302 306 310 312 311 308 308 304 299 299 301 306 306 307 305 304 304 304 305 305 304 303 302 303 304
337 334 332 330 324 320 316 315 315 311 311 312 312 309 304 301 300 300 301 304 310 310 308 307 307 303 297 297 301 304 303 303 304 306 304 302 301 300 301 301 300 299 298
336 333 332 327 323 318 316 314 311 313 311 311 312 311 306 303 299 299 300 304 308 308 310 303 300 301 296 296 300 301 298 300 301 300 302 305 305 307 304 303 303 299 299
336 330 329 324 322 317 312 312 310 310 310 310 309 307 305 303 301 298 300 301 307 308 308 302 300 297 296 297 296 299 300 298 299 299 303 302 302 304 306 306 307 304 300
331 327 324 321 317 311 309 309 310 309 308 307 305 306 305 303 302 298 299 297 300 308 306 304 300 296 297 299 297 299 296 297 300 302 301 300 300 301 304 306 307 307 309
325 321 317 312 310 309 308 308 307 307 305 304 303 303 303 305 303 299 298 297 298 306 306 299 297 298 295 296 296 297 297 302 303 302 301 300 301 303 305 305 306 307 306
314 309 308 307 307 308 308 308 307 305 304 304 302 300 303 304 302 301 301 300 298 300 301 303 301 302 301 302 301 301 302 306 304 303 303 303 304 303 301 304 302 302 300
309 307 306 305 306 306 307 307 307 306 305 303 303 304 304 302 302 300 301 302 304 301 303 308 304 304 303 304 305 307 307 306 305 305 304 303 303 303 301 304 302 301 299
305 305 304 304 305 305 305 304 299 301 299 298 298 303 305 302 296 294 294 294 294 294 301 303 305 306 305 305 305 305 307 304 305 305 305 302 302 302 301 303 302 301 299
305 304 303 304 305 304 303 301 299 300 295 297 298 299 298 295 293 293 294 293 296 295 300 302 304 306 306 305 304 304 304 306 306 306 304 304 303 303 300 301 301 300 299
306 302 305 304 303 302 302 301 301 300 298 298 294 298 294 293 293 293 294 295 297 295 300 302 304 307 306 306 305 305 305 306 305 305 304 304 304 303 301 301 300 300 299
306 305 305 304 303 302 302 302 302 301 301 301 302 296 294 293 293 293 292 299 298 299 300 300 303 308 307 307 307 307 307 305 304 305 304 304 304 303 302 302 301 294 293
307 304 303 304 302 301 302 305 303 302 301 302 302 301 299 295 296 297 297 299 300 302 303 304 305 308 308 310 309 308 307 305 305 305 305 305 305 304 302 302 303 300 300
308 306 299 304 304 303 306 304 303 302 302 303 303 302 296 300 300 301 301 301 302 302 302 304 306 307 310 310 309 309 306 306 305 306 304 306 305 304 304 305 304 303 301
309 307 306 307 308 306 305 304 303 303 304 304 305 303 291 303 304 304 304 304 304 304 305 305 309 309 309 309 309 307 306 305 306 306 306 305 305 305 304 304 303 303 302
311 310 308 309 306 300 301 303 304 305 306 306 305 300 301 305 306 306 305 306 306 306 306 308 309 309 310 309 310 309 306 305 307 307 306 306 305 305 305 303 303 302 301
310 309 308 305 304 302 302 303 305 299 305 306 306 305 305 306 306 305 306 309 308 308 309 309 309 309 309 310 310 309 309 309 309 309 309 307 306 303 304 302 303 303 301
306 305 304 304 303 303 303 304 304 305 305 305 306 305 306 307 306 305 307 308 309 308 309 309 309 309 309 310 310 310 304 290 304 298 308 308 306 304 302 303 304 302 300
305 304 304 303 303 303 304 304 304 306 305 305 306 307 307 308 306 306 307 308 309 309 310 310 310 311 311 311 311 303 292 290 299 290 307 307 304 304 305 305 303 301 299
Wind_Speed
13 13 12 12 12 11 10 10 8 8 13 12 11 8 7 6 5 4 3 2 3 2 3 5 5 5 3 4 5 5 6 7 5 6 5 9 2 5 5 6 6 6 9
13 14 14 14 14 13 12 13 9 11 12 12 10 8 6 6 4 4 3 3 4 3 5 4 4 4 5 5 4 5 4 5 5 8 8 5 4 5 6 7 7 8 8
14 14 13 15 15 14 12 13 12 13 12 10 10 8 7 5 5 3 3 4 4 3 5 2 3 6 5 4 5 4 5 6 7 6 7 3 4 5 7 6 9 8 8
16 14 15 15 14 13 12 13 13 14 13 12 11 10 7 6 2 4 5 5 1 4 3 2 7 6 3 4 5 5 6 5 5 6 7 5 6 6 4 5 8 7 7
16 11 13 15 15 13 12 11 13 12 12 13 13 11 9 7 4 3 5 5 4 4 4 4 6 6 3 2 3 4 5 4 5 5 7 6 7 8 7 7 8 7 11
16 14 14 15 14 14 13 13 12 12 12 11 9 9 7 7 8 8 4 5 4 4 3 5 6 5 5 8 8 9 9 5 5 3 4 6 6 6 5 6 6 8 8
15 11 14 15 14 12 11 13 12 13 12 10 8 8 7 10 9 6 3 4 5 4 4 5 4 7 8 5 9 13 7 5 6 3 5 5 6 6 5 7 8 9 5
14 14 15 15 15 15 14 13 13 12 12 10 8 8 8 7 6 4 1 4 3 4 5 5 5 7 3 4 6 6 7 1 2 3 6 7 7 7 4 5 7 10 6
11 14 17 17 17 17 16 14 13 13 11 8 5 9 9 5 8 3 3 5 6 6 7 5 5 7 2 6 6 6 6 5 8 10 10 14 17 16 13 2 6 7 6
11 11 14 17 18 17 15 14 13 12 11 8 8 9 10 5 6 6 2 5 5 4 6 6 8 6 4 5 4 5 5 5 6 10 12 12 3 6 3 5 5 5 3
10 12 14 13 15 16 14 12 13 13 11 8 7 8 7 8 4 6 9 5 6 6 7 6 4 6 3 2 1 5 4 5 11 9 6 4 4 5 3 4 4 3 2
10 14 14 16 12 13 17 13 13 12 11 10 10 7 4 6 7 10 10 6 5 2 7 6 5 9 6 3 4 9 8 8 7 4 4 4 3 4 4 4 7 6 5
13 14 14 13 14 16 17 16 12 12 10 9 8 6 6 8 7 9 10 8 2 3 4 6 9 8 7 6 12 15 8 6 4 3 3 3 3 4 6 5 6 7 7
16 15 14 15 14 14 12 12 12 11 9 9 8 7 8 9 8 6 5 4 5 3 5 4 6 8 8 6 6 7 5 3 2 2 2 3 3 3 4 4 4 4 4
14 13 13 12 13 14 11 10 11 8 9 10 8 10 12 10 9 10 9 7 6 3 3 5 5 5 6 6 7 4 4 2 2 2 1 3 3 2 4 4 3 3 3
12 10 11 11 11 11 10 8 8 10 12 15 10 16 10 11 15 14 12 11 9 5 3 5 6 7 4 3 2 3 5 3 3 3 3 4 4 4 5 4 4 4 5
14 13 9 11 10 11 10 10 11 6 4 12 17 11 13 13 19 16 14 10 9 4 3 5 6 4 4 3 3 2 2 3 3 3 2 2 3 4 5 3 3 3 4
13 18 12 12 11 10 10 10 9 11 12 8 2 6 15 17 15 14 12 8 3 2 5 6 6 4 4 4 3 3 0 2 3 1 1 2 3 4 4 5 4 4 4
13 11 11 9 10 11 10 11 10 11 10 9 7 3 6 10 10 9 9 5 6 8 7 8 8 4 4 4 3 2 2 1 5 2 3 3 4 3 4 5 7 8 4
14 19 14 13 12 11 11 11 10 10 10 11 11 10 8 7 7 7 6 5 6 7 7 9 9 5 5 4 3 3 3 6 6 6 6 6 4 2 3 1 0 2 5
10 11 11 14 13 13 12 11 10 11 12 12 12 13 16 12 10 10 9 9 9 9 9 8 4 5 5 5 5 5 5 6 6 5 5 4 4 4 6 5 4 4 6
11 14 13 12 13 14 11 11 11 12 12 12 11 12 17 11 10 10 11 11 11 11 9 9 5 3 2 3 4 6 6 4 4 4 4 3 4 3 3 3 5 4 5
12 15 13 11 10 11 9 10 9 8 7 9 6 9 13 11 11 11 11 12 11 11 10 7 4 4 4 4 4 5 6 7 6 4 3 4 6 2 1 4 4 3 3
5 10 7 4 7 8 7 9 4 6 8 6 8 11 12 9 7 7 7 5 6 6 6 6 6 7 7 6 5 6 7 8 6 5 6 4 3 3 2 4 5 5 2
8 8 7 6 7 5 5 6 12 9 8 6 5 11 11 10 8 8 7 6 5 8 9 8 7 10 12 13 11 12 12 8 7 5 4 4 4 3 4 6 7 3 5
10 10 8 8 6 6 10 10 8 5 5 4 6 8 7 8 10 11 10 10 9 8 8 6 9 14 15 13 17 17 10 8 7 8 5 4 4 5 5 6 4 4 5
Wind_Direction
178 174 185 189 194 189 181 189 170 132 138 137 142 148 149 142 127 139 90 107 83 86 59 41 17 25 22 333 351 14 353 353 345 317 308 312 45 26 3 336 0 331 340
174 176 185 184 187 190 181 185 153 142 144 149 142 147 144 127 140 99 72 68 75 77 66 28 29 23 22 41 349 356 321 336 331 322 309 333 14 32 350 350 343 332 327
198 180 183 181 185 193 182 175 156 149 149 140 132 115 104 98 92 85 54 77 58 77 75 47 39 55 41 5 349 340 13 349 319 318 317 13 9 16 353 347 342 332 316
211 194 182 176 181 185 182 175 160 154 143 131 119 112 105 121 87 129 135 96 70 100 117 207 80 78 46 15 347 14 355 324 334 329 334 340 10 353 343 336 338 327 328
201 201 176 172 176 176 174 170 155 149 128 129 131 136 149 136 212 90 108 127 154 165 183 118 111 125 124 343 326 319 302 321 320 338 349 344 345 348 346 339 331 325 338
190 198 167 169 173 167 166 157 148 129 127 125 130 142 171 116 93 93 52 153 185 106 165 106 133 110 60 20 351 299 268 262 281 348 335 344 324 318 323 324 321 336 331
182 163 151 158 153 161 144 131 130 131 128 131 147 169 129 102 125 127 69 289 121 165 81 71 175 79 45 1 329 310 325 324 219 279 303 302 299 295 324 320 326 326 329
155 146 153 150 146 138 137 141 141 136 143 150 174 132 116 111 135 144 132 297 155 108 113 90 68 98 58 6 320 329 351 69 59 299 268 269 267 282 284 299 316 308 350
157 157 156 146 141 140 144 144 141 140 139 153 121 105 91 128 161 204 268 277 169 173 148 156 138 108 82 29 342 355 358 352 330 319 274 277 276 276 265 340 289 317 346
163 158 156 151 147 145 147 143 139 138 130 127 121 131 147 155 180 221 223 276 190 197 188 114 76 126 115 65 353 332 350 315 326 310 305 296 323 317 302 204 262 334 342
153 139 145 147 146 136 133 130 134 124 122 124 126 110 129 136 179 247 249 267 256 206 164 142 153 167 169 129 263 286 280 313 301 293 280 18 350 347 68 324 298 280 261
128 144 140 143 137 125 127 128 126 126 125 124 125 134 136 128 218 217 235 254 303 31 95 135 161 189 204 243 277 261 288 308 289 344 0 1 350 334 318 282 281 279 266
115 122 127 124 129 139 136 135 127 127 132 138 150 153 158 175 200 193 219 241 257 58 78 129 152 195 221 244 249 261 276 272 325 359 4 343 348 315 335 338 321 340 341
119 122 127 132 134 135 134 137 137 143 150 155 151 162 208 192 180 182 210 234 251 219 173 171 204 214 214 269 260 232 228 227 279 356 5 323 330 15 334 308 323 357 343
126 128 128 132 134 133 132 142 145 151 156 155 180 197 205 181 183 182 201 202 200 210 233 203 202 210 225 237 240 181 168 143 6 326 20 339 336 328 326 309 20 335 340
126 131 140 139 137 139 144 133 80 127 158 187 216 221 184 174 156 152 138 142 112 139 211 229 240 211 226 175 229 206 156 166 100 321 19 358 342 345 338 333 354 353 359
139 139 135 137 146 151 153 150 158 202 219 199 218 167 145 150 150 153 150 143 126 123 238 260 268 175 216 181 232 257 306 134 170 246 106 -0 332 318 311 329 339 345 357
144 149 151 154 152 153 156 161 174 180 188 172 94 135 144 148 154 151 143 125 131 215 259 266 273 199 188 202 213 236 165 47 330 139 178 237 277 281 306 316 330 342 347
146 154 152 155 153 158 171 193 184 176 179 165 144 144 135 122 134 134 158 180 204 215 210 231 249 227 181 200 212 157 108 255 259 267 260 257 243 267 308 310 355 335 316
160 165 164 166 160 182 189 193 177 179 176 187 176 174 161 150 170 180 194 200 240 251 251 217 231 200 192 181 155 164 229 244 243 220 231 237 241 198 257 269 284 243 276
164 172 166 168 175 190 185 182 180 182 192 190 182 183 173 181 188 194 191 204 216 235 252 259 240 200 186 177 184 195 227 248 247 231 226 218 227 230 236 204 204 220 258
171 181 188 182 191 184 180 173 186 193 195 198 193 180 168 181 190 198 202 205 204 214 229 240 229 226 226 210 201 214 234 257 271 265 253 264 262 253 264 315 265 255 262
184 187 184 202 177 164 175 184 190 207 177 205 145 147 172 188 195 200 206 207 202 206 213 221 220 202 195 203 217 221 237 248 246 237 254 236 253 308 257 244 295 282 281
184 170 173 161 164 164 163 153 234 197 221 201 148 160 180 200 202 209 238 219 190 196 203 204 207 207 207 209 212 219 226 233 236 228 241 259 291 277 287 286 271 270 237
107 114 96 76 111 95 89 202 211 228 210 204 184 170 190 192 194 205 227 239 220 209 210 206 204 212 219 217 218 221 231 219 207 224 222 218 231 243 248 264 270 191 125
118 111 100 98 107 168 209 220 233 223 177 209 221 199 202 190 192 202 207 219 220 216 216 214 215 220 225 225 224 226 216 201 201 216 203 169 190 228 251 271 287 115 144